Regional Weather Roundup
Issued by NWS

Home | Current Version | Previous Version | Graphics & Text | Print | Product List | Glossary On
Versions: 1 2 3 4 5 6 7 8 9 10 11 12 13 14 15 16 17 18 19 20 21 22 23 24 25 26 27 28 29 30 31 32 33 34 35 36 37 38 39 40 41 42 43 44 45 46 47 48 49 50
000
ASUS45 KBOU 230107
RWRCO

WEATHER ROUNDUP FOR COLORADO
NATIONAL WEATHER SERVICE DENVER/BOULDER CO
700 PM MDT FRI MAY 22 2015

NOTE: "FAIR" INDICATES FEW OR NO CLOUDS BELOW 12000 FEET WITH NO
SIGNIFICANT WEATHER AND/OR OBSTRUCTIONS TO VISIBILITY.

COZ001>005-013-030-031-230200-
...NORTHWEST COLORADO...

CITY           SKY/WX    TMP DP  RH WIND       PRES   REMARKS
CRAIG          PTSUNNY   52  41  66 E9        29.96F
HAYDEN         PTSUNNY   48  37  66 E8        29.99F
MEEKER         MOSUNNY   52  42  69 MISG      29.97S
MOUNT WERNER   NOT AVBL
STEAMBOAT SPGS PTSUNNY   47  38  72 W5        30.02R
WALDEN         PTSUNNY   43  34  70 SE8       30.04R
$$

COZ006>008-011-230200-
...WEST CENTRAL VALLEYS...

CITY           SKY/WX    TMP DP  RH WIND       PRES   REMARKS
GRAND JUNCTION MOSUNNY   66  37  34 N6        29.83F
MONTROSE       CLOUDY    57  35  43 S21G28    29.98R
EAGLE          MOSUNNY   54  43  66 VRB7      29.99S
RIFLE          PTSUNNY   59  40  49 S9        29.93R
DELTA          TSTM      60  46  60 MISG      29.91R
NUCLA          CLOUDY    57  36  44 SE20G35   29.96S
$$

COZ017>023-064>068-230200-
...SOUTHWEST COLORADO...

CITY           SKY/WX    TMP DP  RH WIND       PRES   REMARKS
DURANGO        PTSUNNY   57  40  52 SE5       29.94F
CORTEZ         PTSUNNY   53  45  74 NE9G20    29.93F
PAGOSA SPRINGS PTSUNNY   55  38  53 CALM      30.02F THUNDER
TELLURIDE      CLOUDY    38  38  99 W6G20     30.10S
WOLF CREEK PAS NOT AVBL
$$

COZ009-010-012-014-032>034-037-058>063-230200-
...CENTRAL COLORADO...

CITY           SKY/WX    TMP DP  RH WIND       PRES   REMARKS
ASPEN          LGT RAIN  49  38  65 SE16G24   30.01R
BUENA VISTA    CLOUDY    49  34  56 W9G16     30.03R
COPPER MTN     PTSUNNY   37  27  65 S10       30.17F
BERTHOUD PASS  HAZE      28  21  74 NE5       30.21S THUNDER VSB 1/2
COTTONWOOD PAS CLOUDY    41  32  70 NW13G22   30.11S
GUNNISON       CLOUDY    52  28  40 SW9       30.04R
KREMMLING      PTSUNNY   50  36  57 NE5       30.02F
LEADVILLE      CLOUDY    43  26  51 S21G26    30.07R
MONARCH PASS   CLOUDY    32  28  86 S18       30.29S WCI  20
SALIDA         CLOUDY    55  36  47 W9        30.07S
SUNLIGHT       MOSUNNY   37  36  93 CALM      30.14R
WILKERSON PASS CLOUDY    36  32  87 SW5       30.19S
$$

COZ069>075-230200-
...SAN LUIS VALLEY/SANGRE DE CRISTO MOUNTAINS...

CITY           SKY/WX    TMP DP  RH WIND       PRES   REMARKS
ALAMOSA        MOSUNNY   61  26  26 S16G29    30.00F
LA VETA PASS   MOSUNNY  N/A N/A N/A MISG      30.14S
SAGUACHE       CLOUDY    55  30  38 S3        30.03S
$$

COZ035-036-038>040-230200-
...NORTHERN COLORADO FRONT RANGE...

CITY           SKY/WX    TMP DP  RH WIND       PRES   REMARKS
DENVER INTL AP PTSUNNY   54  45  71 NE10      29.99S
DMNS CITY PARK   N/A     53  45  72 N3G12     29.99F
AURORA         LGT RAIN  51  49  94 NE10      30.00S
FRONT RANGE AP LGT RAIN  54  50  87 N10       30.01R
ERIE MUNI ARPT PTSUNNY   53  48  81 CALM      30.00R
BOULDER MUN AP CLOUDY    50  48  93 CALM      30.00R
CENTENNIAL     TSTM      50  48  93 NE10      30.00R
BROOMFIELD     PTSUNNY   54  46  76 N5        30.02R
FORT COLLINS   CLOUDY    54  45  71 E5        30.02S
LONGMONT       LGT RAIN  55  47  76 CALM      30.02R
$$

COZ041-046-047-076>085-087-088-230200-
...PIKES PEAK/PALMER DIVIDE AND SOUTHERN FOOTHILLS...

CITY           SKY/WX    TMP DP  RH WIND       PRES   REMARKS
COLO. SPRINGS  MOSUNNY   63  41  44 SE13      29.96S
A. F. ACADEMY  MOSUNNY   55  44  68 NW14      29.98R
ELLICOTT       NOT AVBL
FALCON         MOSUNNY   56  45  65 NE10      30.01S
FORT CARSON    PTSUNNY   59  45  59 E10       29.93R
LIMON          LGT RAIN  50  47  89 NE15      29.96F
MONUMENT HILL  NOT AVBL
TRINIDAD       SUNNY     66  38  35 S25G33    29.92F
$$

COZ042>045-048>051-090-091-230200-
...NORTHEAST COLORADO...

CITY           SKY/WX    TMP DP  RH WIND       PRES   REMARKS
GREELEY ARPT   CLOUDY    55  45  67 NE5       30.00F
AKRON          CLOUDY    52  51  97 E12       29.99S FOG
BURLINGTON     PTSUNNY   55  52  89 SE24      29.96R
WRAY           CLOUDY   N/A N/A N/A E13       30.01S
STERLING       CLOUDY    52  46  82 E12       30.01R
HOLYOKE        NOT AVBL
FORT MORGAN    MOSUNNY   54  47  78 NE8       30.01S
$$

COZ086-089-092>099-230200-
...SOUTHEAST COLORADO...

CITY           SKY/WX    TMP DP  RH WIND       PRES   REMARKS
PUEBLO         PTSUNNY   66  49  54 NE8       29.86S
LA JUNTA       MOSUNNY   74  46  36 SW12      29.84R
LAMAR          SUNNY     69  52  54 S29G36    29.86S
SPRINGFIELD      N/A     64  51  62 S20G29    29.95S
$$



USA.gov is the U.S. government's official web portal to all federal, state and local government web resources and services.